Location: Clyde
(45.1830°S, 169.3170°E)
Time: 20:14:04
(UTC+12:00)

ATLAS 3B R/B - Pass Details

Date: 24 January 2019
Orbit: 1029 x 1166 km, 63.8° (Epoch: 20 April)

Event Time Altitude Azimuth Distance (km) Brightness Sun altitude
Exits shadow 22:18:12 10° 63° (ENE) 2,993 4.4 -9.0°
Reaches altitude 10° 22:18:14 10° 63° (ENE) 2,992 4.4 -9.0°
Maximum altitude 22:20:12 11° 79° (E) 2,914 4.5 -9.3°
Drops below altitude 10° 22:22:11 10° 95° (E) 3,028 4.7 -9.5°
Sets 22:27:23 0° 126° (SE) 4,031 5.6 -10.2°
